Time,TemperatureF,DewpointF,PressureIn,WindDirection,WindDirectionDegrees,WindSpeedMPH,WindSpeedGustMPH,Humidity,HourlyPrecipIn,Conditions,Clouds,dailyrainin,SoftwareType,DateUTC
2013-01-22 00:12:00,24.0,22.0,-100.00,South,180,1.0,5.0,91,-99.99,,,-99.99,,2013-01-22 05:12:00,
2013-01-22 00:23:00,24.0,22.0,-100.00,East,90,2.0,3.0,91,-99.99,,,-99.99,,2013-01-22 05:23:00,
2013-01-22 00:33:00,24.0,22.0,-100.00,East,90,2.0,3.0,91,-99.99,,,-99.99,,2013-01-22 05:33:00,
2013-01-22 00:43:00,24.0,22.0,-100.00,NNW,345,2.0,5.0,91,-99.99,,,-99.99,,2013-01-22 05:43:00,
2013-01-22 00:53:00,24.0,22.0,-100.00,West,270,0.0,3.0,91,-99.99,,,-99.99,,2013-01-22 05:53:00,
2013-01-22 01:02:00,24.0,22.0,-100.00,NE,50,1.0,3.0,91,-99.99,,,-99.99,,2013-01-22 06:02:00,
2013-01-22 01:33:00,24.0,22.0,-100.00,East,90,0.0,2.0,92,-99.99,,,-99.99,,2013-01-22 06:33:00,
2013-01-22 01:43:00,24.0,21.0,-100.00,NNW,345,1.0,2.0,91,-99.99,,,-99.99,,2013-01-22 06:43:00,
2013-01-22 01:52:00,23.0,21.0,-100.00,West,270,2.0,3.0,92,-99.99,,,-99.99,,2013-01-22 06:52:00,
2013-01-22 02:02:00,23.0,21.0,-100.00,West,270,2.0,3.0,92,-99.99,,,-99.99,,2013-01-22 07:02:00,
2013-01-22 02:33:00,23.0,21.0,-100.00,West,275,1.0,5.0,92,-99.99,,,-99.99,,2013-01-22 07:33:00,
2013-01-22 03:32:00,23.0,21.0,-100.00,North,0,2.0,7.0,92,-99.99,,,-99.99,,2013-01-22 08:32:00,
2013-01-22 03:43:00,23.0,21.0,-100.00,North,0,3.0,7.0,92,-99.99,,,-99.99,,2013-01-22 08:43:00,
2013-01-22 03:52:00,23.0,21.0,-100.00,North,5,2.0,9.0,92,-99.99,,,-99.99,,2013-01-22 08:52:00,
2013-01-22 04:02:00,23.0,21.0,-100.00,North,0,1.0,12.0,92,-99.99,,,-99.99,,2013-01-22 09:02:00,
2013-01-22 04:12:00,23.0,21.0,-100.00,North,10,2.0,6.0,91,-99.99,,,-99.99,,2013-01-22 09:12:00,
2013-01-22 04:23:00,22.0,20.0,-100.00,West,260,1.0,2.0,92,-99.99,,,-99.99,,2013-01-22 09:23:00,
2013-01-22 04:33:00,22.0,20.0,-100.00,West,270,2.0,3.0,91,-99.99,,,-99.99,,2013-01-22 09:33:00,
2013-01-22 04:43:00,21.0,19.0,-100.00,West,270,1.0,5.0,92,-99.99,,,-99.99,,2013-01-22 09:43:00,
2013-01-22 04:52:00,21.0,19.0,-100.00,West,270,1.0,5.0,92,-99.99,,,-99.99,,2013-01-22 09:52:00,
2013-01-22 05:03:00,20.0,18.0,-100.00,West,270,2.0,6.0,91,-99.99,,,-99.99,,2013-01-22 10:03:00,
2013-01-22 06:33:00,21.0,19.0,-100.00,West,275,5.0,9.0,91,-99.99,,,-99.99,,2013-01-22 11:33:00,
2013-01-22 06:43:00,21.0,19.0,-100.00,West,275,5.0,10.0,91,-99.99,,,-99.99,,2013-01-22 11:43:00,
2013-01-22 06:53:00,21.0,19.0,-100.00,West,275,6.0,9.0,90,-99.99,,,-99.99,,2013-01-22 11:53:00,
2013-01-22 07:04:00,21.0,18.0,-100.00,West,275,5.0,9.0,89,-99.99,,,-99.99,,2013-01-22 12:04:00,
2013-01-22 07:13:00,21.0,18.0,-100.00,West,275,3.0,10.0,88,-99.99,,,-99.99,,2013-01-22 12:13:00,
2013-01-22 07:23:00,21.0,17.0,-100.00,West,270,3.0,10.0,85,-99.99,,,-99.99,,2013-01-22 12:23:00,
2013-01-22 07:33:00,21.0,17.0,-100.00,West,270,3.0,10.0,85,-99.99,,,-99.99,,2013-01-22 12:33:00,
2013-01-22 07:43:00,21.0,16.0,-100.00,West,275,3.0,8.0,83,-99.99,,,-99.99,,2013-01-22 12:43:00,
2013-01-22 07:53:00,20.0,16.0,-100.00,WNW,285,3.0,12.0,81,-99.99,,,-99.99,,2013-01-22 12:53:00,
2013-01-22 08:33:00,20.0,14.0,-100.00,West,265,6.0,13.0,78,-99.99,,,-99.99,,2013-01-22 13:33:00,
2013-01-22 09:44:00,21.0,11.0,-100.00,NW,325,8.0,18.0,66,-99.99,,,-99.99,,2013-01-22 14:44:00,
2013-01-22 09:53:00,21.0,11.0,-100.00,WNW,290,7.0,17.0,63,-99.99,,,-99.99,,2013-01-22 14:53:00,
2013-01-22 10:04:00,22.0,10.0,-100.00,NW,320,9.0,18.0,59,-99.99,,,-99.99,,2013-01-22 15:04:00,
2013-01-22 10:13:00,22.0,9.0,-100.00,NNW,345,7.0,20.0,58,-99.99,,,-99.99,,2013-01-22 15:13:00,
2013-01-22 10:24:00,22.0,9.0,-100.00,WNW,300,9.0,18.0,57,-99.99,,,-99.99,,2013-01-22 15:24:00,
2013-01-22 10:34:00,23.0,9.0,-100.00,WNW,295,9.0,16.0,55,-99.99,,,-99.99,,2013-01-22 15:34:00,
2013-01-22 10:43:00,23.0,8.0,-100.00,NW,305,8.0,21.0,53,-99.99,,,-99.99,,2013-01-22 15:43:00,
2013-01-22 10:53:00,23.0,8.0,-100.00,NW,305,8.0,21.0,53,-99.99,,,-99.99,,2013-01-22 15:53:00,
2013-01-22 11:13:00,23.0,6.0,-100.00,NW,320,6.0,18.0,47,-99.99,,,-99.99,,2013-01-22 16:13:00,
2013-01-22 11:24:00,23.0,6.0,-100.00,NW,320,6.0,18.0,47,-99.99,,,-99.99,,2013-01-22 16:24:00,
2013-01-22 11:33:00,23.0,6.0,-100.00,WNW,285,13.0,21.0,47,-99.99,,,-99.99,,2013-01-22 16:33:00,
2013-01-22 11:43:00,23.0,5.0,-100.00,NW,305,9.0,21.0,45,-99.99,,,-99.99,,2013-01-22 16:43:00,
2013-01-22 11:53:00,24.0,3.0,-100.00,NNW,340,7.0,20.0,41,-99.99,,,-99.99,,2013-01-22 16:53:00,
2013-01-22 12:04:00,24.0,3.0,-100.00,NNW,345,8.0,18.0,40,-99.99,,,-99.99,,2013-01-22 17:04:00,
2013-01-22 13:34:00,24.0,0.0,-100.00,West,270,9.0,22.0,34,-99.99,,,-99.99,,2013-01-22 18:34:00,
2013-01-22 13:43:00,24.0,-1.0,-100.00,West,270,10.0,17.0,34,-99.99,,,-99.99,,2013-01-22 18:43:00,
2013-01-22 13:53:00,23.0,0.0,-100.00,WSW,255,12.0,20.0,35,-99.99,,,-99.99,,2013-01-22 18:53:00,
2013-01-22 14:04:00,24.0,0.0,-100.00,WNW,290,13.0,24.0,34,-99.99,,,-99.99,,2013-01-22 19:04:00,
2013-01-22 14:14:00,24.0,-1.0,-100.00,NW,320,10.0,22.0,32,-99.99,,,-99.99,,2013-01-22 19:14:00,
2013-01-22 14:24:00,24.0,-1.0,-100.00,West,265,8.0,22.0,33,-99.99,,,-99.99,,2013-01-22 19:24:00,
2013-01-22 14:34:00,24.0,-1.0,-100.00,West,265,8.0,22.0,33,-99.99,,,-99.99,,2013-01-22 19:34:00,
2013-01-22 14:43:00,24.0,-2.0,-100.00,WNW,300,13.0,21.0,32,-99.99,,,-99.99,,2013-01-22 19:43:00,
2013-01-22 14:54:00,23.0,-3.0,-100.00,West,270,9.0,20.0,31,-99.99,,,-99.99,,2013-01-22 19:54:00,
2013-01-22 15:33:00,24.0,-4.0,-100.00,WNW,295,8.0,18.0,29,-99.99,,,-99.99,,2013-01-22 20:33:00,
2013-01-22 16:00:00,23.0,-3.0,-100.00,WNW,285,6.0,12.0,31,-99.99,,,-99.99,,2013-01-22 21:00:00,
2013-01-22 16:30:00,22.0,-3.0,-100.00,NW,325,7.0,15.0,33,-99.99,,,-99.99,,2013-01-22 21:30:00,
2013-01-22 16:34:00,23.0,-4.0,-100.00,NW,315,8.0,15.0,29,-99.99,,,-99.99,,2013-01-22 21:34:00,
2013-01-22 16:43:00,23.0,-3.0,-100.00,WNW,285,6.0,12.0,31,-99.99,,,-99.99,,2013-01-22 21:43:00,
2013-01-22 16:53:00,23.0,-3.0,-100.00,WNW,285,6.0,12.0,31,-99.99,,,-99.99,,2013-01-22 21:53:00,
2013-01-22 17:13:00,22.0,-3.0,-100.00,NW,325,7.0,15.0,33,-99.99,,,-99.99,,2013-01-22 22:13:00,
2013-01-22 17:23:00,22.0,-3.0,-100.00,NW,325,7.0,15.0,33,-99.99,,,-99.99,,2013-01-22 22:23:00,
2013-01-22 17:43:00,20.0,-3.0,-100.00,North,350,6.0,13.0,34,-99.99,,,-99.99,,2013-01-22 22:43:00,
2013-01-22 17:53:00,20.0,-4.0,-100.00,NNW,335,5.0,17.0,34,-99.99,,,-99.99,,2013-01-22 22:53:00,
2013-01-22 18:12:00,19.0,-4.0,-100.00,West,275,5.0,13.0,35,-99.99,,,-99.99,,2013-01-22 23:12:00,
2013-01-22 19:43:00,18.0,-2.0,-100.00,WNW,290,5.0,10.0,41,-99.99,,,-99.99,,2013-01-23 00:43:00,
2013-01-22 19:52:00,18.0,-2.0,-100.00,WNW,290,5.0,10.0,41,-99.99,,,-99.99,,2013-01-23 00:52:00,
2013-01-22 20:03:00,17.0,-2.0,-100.00,NW,310,5.0,12.0,41,-99.99,,,-99.99,,2013-01-23 01:03:00,
2013-01-22 20:13:00,17.0,-4.0,-100.00,NW,305,9.0,14.0,39,-99.99,,,-99.99,,2013-01-23 01:13:00,
2013-01-22 20:23:00,17.0,-3.0,-100.00,NW,315,3.0,12.0,41,-99.99,,,-99.99,,2013-01-23 01:23:00,
2013-01-22 20:33:00,17.0,-3.0,-100.00,NW,315,3.0,12.0,41,-99.99,,,-99.99,,2013-01-23 01:33:00,
2013-01-22 20:43:00,16.0,-3.0,-100.00,West,265,5.0,10.0,41,-99.99,,,-99.99,,2013-01-23 01:43:00,
2013-01-22 20:53:00,16.0,-3.0,-100.00,West,275,3.0,8.0,43,-99.99,,,-99.99,,2013-01-23 01:53:00,
2013-01-22 21:03:00,16.0,-3.0,-100.00,WNW,285,2.0,8.0,43,-99.99,,,-99.99,,2013-01-23 02:03:00,
2013-01-22 21:13:00,15.0,-3.0,-100.00,WNW,290,6.0,10.0,43,-99.99,,,-99.99,,2013-01-23 02:13:00,
2013-01-22 21:23:00,15.0,-3.0,-100.00,WNW,290,3.0,10.0,44,-99.99,,,-99.99,,2013-01-23 02:23:00,
2013-01-22 21:33:00,15.0,-3.0,-100.00,WNW,285,5.0,13.0,43,-99.99,,,-99.99,,2013-01-23 02:33:00,
2013-01-22 22:00:00,14.0,-2.0,-100.00,West,280,5.0,8.0,48,-99.99,,,-99.99,,2013-01-23 03:00:00,
2013-01-22 22:13:00,15.0,-3.0,-100.00,NW,320,5.0,12.0,45,-99.99,,,-99.99,,2013-01-23 03:13:00,
2013-01-22 22:23:00,15.0,-2.0,-100.00,WNW,300,3.0,12.0,46,-99.99,,,-99.99,,2013-01-23 03:23:00,
2013-01-22 22:33:00,14.0,-2.0,-100.00,West,275,3.0,10.0,47,-99.99,,,-99.99,,2013-01-23 03:33:00,
2013-01-22 22:43:00,14.0,-2.0,-100.00,West,280,5.0,8.0,48,-99.99,,,-99.99,,2013-01-23 03:43:00,
2013-01-22 22:53:00,14.0,-2.0,-100.00,West,280,5.0,8.0,48,-99.99,,,-99.99,,2013-01-23 03:53:00,
2013-01-22 23:13:00,13.0,-1.0,-100.00,West,275,5.0,7.0,51,-99.99,,,-99.99,,2013-01-23 04:13:00,
2013-01-22 23:23:00,13.0,-1.0,-100.00,West,275,5.0,7.0,51,-99.99,,,-99.99,,2013-01-23 04:23:00,
2013-01-22 23:33:00,13.0,0.0,-100.00,NW,305,3.0,7.0,54,-99.99,,,-99.99,,2013-01-23 04:33:00,
2013-01-22 23:43:00,13.0,-1.0,-100.00,WNW,295,3.0,8.0,54,-99.99,,,-99.99,,2013-01-23 04:43:00,
2013-01-22 23:53:00,13.0,-1.0,-100.00,West,270,3.0,6.0,54,-99.99,,,-99.99,,2013-01-23 04:53:00,